.
WxDataArchive / Data Records for 2008-12-23
2008-12-22 December 2008 2008-12-24

Data Records for Tuesday, 23 December 2008

Time	Temp	Chill	HIndex	Humid	Dewpt	 Wind 	HiWind	WindDir	Rain 	Barom 
-----	----	-----	------	-----	-----	------	------	-------	-----	----- 
00:00	10.0	10.0	10.0	79	4.8	0	0	---	0.00	30.520 
00:05	10.0	10.0	10.0	80	5.1	0	0	---	0.00	30.514 
00:10	10.0	10.0	10.0	80	5.1	0	0	---	0.00	30.513 
00:15	10.0	10.0	10.0	80	5.1	0	1	248	0.00	30.515 
00:20	10.0	10.0	10.0	80	5.1	0	2	248	0.00	30.513 
00:25	10.0	10.0	10.0	80	5.1	0	1	248	0.00	30.513 
00:30	10.0	10.0	10.0	80	5.1	0	1	248	0.00	30.510 
00:35	10.0	10.0	10.0	81	5.4	0	1	248	0.00	30.510 
00:40	10.0	10.0	10.0	81	5.4	0	1	248	0.00	30.506 
00:45	10.0	10.0	10.0	81	5.4	0	2	248	0.00	30.504 
00:50	10.0	10.0	10.0	81	5.4	0	1	248	0.00	30.506 
00:55	10.0	10.0	10.0	81	5.4	0	1	248	0.00	30.499 
01:00	10.2	10.2	10.2	81	5.6	0	1	248	0.00	30.494 
01:05	10.2	10.2	10.2	81	5.6	0	1	248	0.00	30.491 
01:10	10.2	10.2	10.2	81	5.6	0	1	248	0.00	30.482 
01:15	10.2	10.2	10.2	81	5.6	0	1	248	0.00	30.476 
01:20	10.4	10.4	10.4	81	5.7	0	2	248	0.00	30.473 
01:25	10.4	10.4	10.4	81	5.7	0	2	248	0.00	30.465 
01:30	10.4	10.4	10.4	81	5.7	0	1	248	0.00	30.463 
01:35	10.5	10.5	10.5	81	5.8	0	1	248	0.00	30.469 
01:40	10.5	10.5	10.5	81	5.8	0	1	248	0.00	30.473 
01:45	10.5	10.5	10.5	81	5.8	0	1	225	0.00	30.468 
01:50	10.5	10.5	10.5	81	5.8	0	2	225	0.00	30.466 
01:55	10.7	10.7	10.7	82	6.3	0	1	225	0.00	30.466 
02:00	10.7	10.7	10.7	82	6.3	0	1	225	0.00	30.464 
02:05	10.7	10.7	10.7	82	6.3	0	1	225	0.00	30.467 
02:10	10.9	10.9	10.9	82	6.5	0	1	225	0.00	30.475 
02:15	10.9	10.9	10.9	82	6.5	0	2	225	0.00	30.477 
02:20	10.9	10.9	10.9	82	6.5	0	1	135	0.00	30.480 
02:25	10.9	10.9	10.9	82	6.5	0	1	135	0.00	30.489 
02:30	11.1	11.1	11.1	82	6.7	0	1	135	0.00	30.477 
02:35	11.1	11.1	11.1	82	6.7	0	1	135	0.00	30.477 
02:40	11.2	11.2	11.2	82	6.8	0	1	135	0.00	30.477 
02:45	11.2	11.2	11.2	82	6.8	0	1	135	0.00	30.475 
02:50	11.4	11.4	11.4	82	7.0	0	2	135	0.00	30.477 
02:55	11.4	11.4	11.4	82	7.0	0	1	135	0.00	30.475 
03:00	11.6	11.6	11.6	82	7.2	0	1	135	0.00	30.477 
03:05	11.6	11.6	11.6	82	7.2	0	1	135	0.00	30.492 
03:10	11.7	11.7	11.7	83	7.6	0	2	135	0.00	30.484 
03:15	11.7	11.7	11.7	83	7.6	0	1	135	0.00	30.474 
03:20	11.9	11.9	11.9	83	7.8	0	1	135	0.00	30.471 
03:25	11.9	11.9	11.9	83	7.8	0	2	135	0.00	30.475 
03:30	12.1	12.1	12.1	83	7.9	0	2	135	0.00	30.475 
03:35	12.1	12.1	12.1	83	7.9	0	1	135	0.00	30.470 
03:40	12.3	12.3	12.3	83	8.1	0	1	135	0.00	30.468 
03:45	12.3	12.3	12.3	83	8.1	0	2	135	0.00	30.467 
03:50	12.4	12.4	12.4	83	8.2	0	2	135	0.00	30.469 
03:55	12.4	12.4	12.4	83	8.2	0	2	135	0.00	30.465 
04:00	12.6	12.6	12.6	83	8.4	0	1	135	0.00	30.470 
04:05	12.6	12.6	12.6	83	8.4	0	2	135	0.00	30.470 
04:10	12.8	12.8	12.8	83	8.6	0	1	135	0.00	30.464 
04:15	12.9	12.9	12.9	83	8.7	0	2	90	0.00	30.459 
04:20	12.9	12.9	12.9	83	8.7	0	2	90	0.00	30.451 
04:25	13.1	13.1	13.1	83	8.9	0	1	90	0.00	30.454 
04:30	13.3	13.3	13.3	83	9.1	0	2	135	0.00	30.446 
04:35	13.3	13.3	13.3	83	9.1	0	2	135	0.00	30.443 
04:40	13.5	13.5	13.5	83	9.3	1	3	135	0.00	30.431 
04:45	13.5	13.5	13.5	83	9.3	0	1	135	0.00	30.433 
04:50	13.6	13.6	13.6	83	9.4	0	2	135	0.00	30.431 
04:55	13.8	13.8	13.8	83	9.6	0	3	112	0.00	30.434 
05:00	13.8	13.8	13.8	83	9.6	0	2	112	0.00	30.443 
05:05	14.0	14.0	14.0	82	9.5	0	3	112	0.00	30.447 
05:10	14.0	14.0	14.0	82	9.5	0	2	112	0.00	30.451 
05:15	14.1	14.1	14.1	82	9.6	0	2	135	0.00	30.457 
05:20	14.3	14.3	14.3	82	9.8	0	1	135	0.00	30.455 
05:25	14.3	14.3	14.3	82	9.8	0	2	135	0.00	30.447 
05:30	14.4	14.4	14.4	82	9.9	0	2	135	0.00	30.441 
05:35	14.4	14.4	14.4	82	9.9	0	1	135	0.00	30.442 
05:40	14.6	14.6	14.6	82	10.1	0	2	135	0.00	30.440 
05:45	14.6	14.6	14.6	82	10.1	0	2	90	0.00	30.433 
05:50	14.8	14.8	14.8	82	10.3	0	1	112	0.00	30.433 
05:55	14.8	14.8	14.8	82	10.3	0	2	112	0.00	30.430 
06:00	14.9	14.9	14.9	82	10.4	0	2	112	0.00	30.430 
06:05	14.9	14.9	14.9	82	10.4	0	2	112	0.00	30.430 
06:10	15.1	15.1	15.1	82	10.6	0	2	112	0.00	30.430 
06:15	15.1	15.1	15.1	82	10.6	0	2	112	0.00	30.428 
06:20	15.2	15.2	15.2	82	10.7	1	2	90	0.00	30.427 
06:25	15.2	15.2	15.2	82	10.7	1	3	135	0.00	30.427 
06:30	15.2	15.2	15.2	82	10.7	1	2	112	0.00	30.427 
06:35	15.2	15.2	15.2	82	10.7	0	2	112	0.00	30.430 
06:40	15.4	15.4	15.4	82	10.9	0	2	112	0.00	30.430 
06:45	15.4	15.4	15.4	82	10.9	0	2	112	0.00	30.429 
06:50	15.6	15.6	15.6	82	11.1	0	2	112	0.00	30.426 
06:55	15.6	15.6	15.6	82	11.1	0	1	135	0.00	30.423 
07:00	15.6	15.6	15.6	82	11.1	0	2	112	0.00	30.423 
07:05	15.7	15.7	15.7	82	11.2	0	2	112	0.00	30.425 
07:10	15.7	15.7	15.7	82	11.2	1	3	112	0.00	30.425 
07:15	15.7	15.7	15.7	82	11.2	0	1	135	0.00	30.423 
07:20	15.9	15.9	15.9	82	11.4	1	3	112	0.00	30.422 
07:25	15.9	15.9	15.9	83	11.7	0	2	135	0.00	30.420 
07:30	15.9	15.9	15.9	83	11.7	1	3	112	0.00	30.414 
07:35	15.9	15.9	15.9	83	11.7	1	3	90	0.00	30.412 
07:40	15.9	15.9	15.9	84	11.9	1	3	90	0.00	30.401 
07:45	15.9	15.9	15.9	84	11.9	2	5	112	0.00	30.395 
07:50	15.9	15.9	15.9	84	11.9	1	6	112	0.00	30.394 
07:55	15.9	15.9	15.9	84	11.9	1	2	112	0.00	30.398 
08:00	15.9	15.9	15.9	85	12.2	1	3	112	0.00	30.396 
08:05	16.1	16.1	16.1	85	12.4	1	4	135	0.00	30.396 
08:10	16.1	16.1	16.1	85	12.4	1	5	135	0.00	30.390 
08:15	16.1	16.1	16.1	85	12.4	1	3	112	0.00	30.380 
08:20	16.2	16.2	16.2	85	12.5	1	4	112	0.00	30.381 
08:25	16.2	16.2	16.2	85	12.5	1	3	135	0.00	30.382 
08:30	16.4	16.4	16.4	85	12.7	1	3	112	0.00	30.381 
08:35	16.4	16.4	16.4	85	12.7	1	4	90	0.00	30.374 
08:40	16.5	16.5	16.5	85	12.8	2	4	112	0.00	30.370 
08:45	16.5	16.5	16.5	85	12.8	1	3	112	0.00	30.367 
08:50	16.7	16.7	16.7	85	13.0	1	4	90	0.00	30.364 
08:55	16.9	16.9	16.9	85	13.2	2	7	112	0.00	30.362 
09:00	16.9	16.9	16.9	85	13.2	1	4	90	0.00	30.365 
09:05	17.0	17.0	17.0	85	13.3	1	4	90	0.00	30.364 
09:10	17.2	17.2	17.2	84	13.2	1	4	112	0.00	30.363 
09:15	17.3	17.3	17.3	84	13.3	2	7	112	0.00	30.358 
09:20	17.3	17.3	17.3	84	13.3	2	7	90	0.00	30.357 
09:25	17.5	17.5	17.5	83	13.2	2	6	90	0.00	30.345 
09:30	17.7	17.7	17.7	83	13.4	2	6	90	0.00	30.342 
09:35	17.8	17.8	17.8	82	13.3	2	5	112	0.00	30.341 
09:40	17.8	17.8	17.8	82	13.3	1	4	90	0.00	30.343 
09:45	18.0	18.0	18.0	81	13.2	2	5	90	0.00	30.327 
09:50	18.1	18.1	18.1	81	13.3	2	5	90	0.00	30.328 
09:55	18.3	18.3	18.3	81	13.5	2	4	90	0.00	30.329 
10:00	18.4	18.4	18.4	80	13.3	2	6	68	0.00	30.327 
10:05	18.6	18.6	18.6	80	13.5	2	7	90	0.00	30.315 
10:10	18.8	18.8	18.8	79	13.4	2	6	90	0.00	30.317 
10:15	18.9	18.9	18.9	78	13.2	1	5	90	0.00	30.320 
10:20	19.1	19.1	19.1	78	13.4	2	5	112	0.00	30.325 
10:25	19.4	19.4	19.4	78	13.7	2	6	90	0.00	30.315 
10:30	19.5	19.5	19.5	78	13.8	2	5	135	0.00	30.310 
10:35	19.7	19.7	19.7	77	13.7	3	9	90	0.00	30.309 
10:40	19.9	19.9	19.9	77	13.9	2	6	90	0.00	30.312 
10:45	20.0	20.0	20.0	77	14.0	3	7	90	0.00	30.301 
10:50	20.0	20.0	20.0	78	14.3	1	6	90	0.00	30.296 
10:55	20.0	20.0	20.0	78	14.3	2	7	112	0.00	30.288 
11:00	20.0	20.0	20.0	78	14.3	2	5	90	0.00	30.282 
11:05	20.2	20.2	20.2	79	14.8	2	5	90	0.00	30.293 
11:10	20.3	20.3	20.3	78	14.6	2	6	68	0.00	30.285 
11:15	20.6	20.6	20.6	77	14.6	2	6	90	0.00	30.282 
11:20	20.8	20.8	20.8	77	14.7	2	7	90	0.00	30.281 
11:25	21.1	21.1	21.1	76	14.7	2	6	90	0.00	30.278 
11:30	21.3	21.3	21.3	75	14.6	3	5	112	0.00	30.280 
11:35	21.4	21.4	21.4	76	15.0	2	6	112	0.00	30.276 
11:40	21.6	21.6	21.6	75	14.9	2	6	90	0.00	30.272 
11:45	21.8	21.8	21.8	75	15.1	2	5	90	0.00	30.263 
11:50	21.9	21.9	21.9	75	15.2	2	7	90	0.00	30.257 
11:55	22.1	22.1	22.1	76	15.7	2	4	112	0.00	30.247 
12:00	22.2	22.2	22.2	76	15.8	2	7	90	0.00	30.250 
12:05	22.4	22.4	22.4	75	15.7	2	6	90	0.00	30.242 
12:10	22.5	22.5	22.5	75	15.8	2	4	90	0.00	30.241 
12:15	22.7	22.7	22.7	75	16.0	2	5	112	0.00	30.233 
12:20	22.7	22.7	22.7	74	15.7	2	6	112	0.00	30.231 
12:25	22.9	22.9	22.9	74	15.9	2	5	90	0.00	30.229 
12:30	23.0	23.0	23.0	75	16.3	1	4	68	0.00	30.227 
12:35	23.3	23.3	23.3	75	16.6	2	6	90	0.00	30.224 
12:40	23.5	23.5	23.5	75	16.8	2	4	112	0.00	30.219 
12:45	23.8	23.8	23.8	75	17.1	1	3	90	0.00	30.210 
12:50	23.9	23.9	23.9	74	16.8	2	5	90	0.00	30.208 
12:55	24.1	24.1	24.1	73	16.7	2	5	90	0.00	30.208 
13:00	24.2	24.2	24.2	74	17.1	2	7	112	0.00	30.208 
13:05	24.2	24.2	24.2	77	18.1	2	5	112	0.00	30.205 
13:10	24.1	24.1	24.1	77	18.0	3	11	68	0.00	30.197 
13:15	24.1	24.1	24.1	79	18.5	2	5	90	0.00	30.192 
13:20	23.9	23.9	23.9	80	18.6	3	6	90	0.00	30.191 
13:25	23.8	23.8	23.8	81	18.8	3	6	90	0.00	30.181 
13:30	23.9	23.9	23.9	82	19.2	1	4	112	0.00	30.177 
13:35	23.9	23.9	23.9	83	19.5	1	4	90	0.00	30.178 
13:40	24.1	24.1	24.1	84	20.0	2	6	90	0.00	30.173 
13:45	24.4	24.4	24.4	84	20.3	1	4	112	0.00	30.168 
13:50	24.5	24.5	24.5	85	20.6	1	4	90	0.00	30.166 
13:55	24.7	24.7	24.7	85	20.8	1	5	112	0.00	30.159 
14:00	24.8	24.8	24.8	85	20.9	1	4	112	0.00	30.158 
14:05	25.0	25.0	25.0	85	21.1	2	6	90	0.00	30.153 
14:10	25.1	25.1	25.1	85	21.2	2	5	68	0.00	30.146 
14:15	25.3	25.3	25.3	85	21.4	2	7	90	0.00	30.142 
14:20	25.4	25.4	25.4	85	21.5	2	7	90	0.00	30.135 
14:25	25.6	25.6	25.6	85	21.7	2	6	90	0.00	30.130 
14:30	25.7	25.7	25.7	85	21.8	2	7	90	0.00	30.128 
14:35	25.8	25.8	25.8	85	21.9	2	6	112	0.00	30.126 
14:40	25.8	25.8	25.8	85	21.9	3	7	90	0.00	30.123 
14:45	25.8	25.8	25.8	85	21.9	2	6	90	0.00	30.109 
14:50	25.8	25.8	25.8	86	22.2	2	9	112	0.00	30.106 
14:55	25.8	25.8	25.8	86	22.2	2	5	90	0.00	30.098 
15:00	26.0	26.0	26.0	86	22.4	2	5	112	0.00	30.102 
15:05	26.1	26.1	26.1	87	22.8	2	7	90	0.00	30.098 
15:10	26.3	26.3	26.3	86	22.7	2	7	68	0.00	30.096 
15:15	26.4	26.4	26.4	86	22.8	2	6	90	0.00	30.095 
15:20	26.6	26.6	26.6	86	23.0	2	6	90	0.00	30.098 
15:25	26.9	26.9	26.9	85	23.0	2	6	68	0.00	30.092 
15:30	27.0	27.0	27.0	85	23.1	3	9	90	0.00	30.093 
15:35	27.3	27.3	27.3	85	23.4	2	6	90	0.00	30.092 
15:40	27.5	27.5	27.5	85	23.6	2	4	112	0.00	30.093 
15:45	27.6	27.6	27.6	85	23.7	2	6	45	0.00	30.092 
15:50	27.8	27.8	27.8	85	23.9	3	7	90	0.00	30.087 
15:55	27.8	27.8	27.8	86	24.2	3	8	90	0.00	30.091 
16:00	27.9	27.9	27.9	86	24.3	1	3	68	0.00	30.085 
16:05	28.1	28.1	28.1	87	24.7	2	6	68	0.00	30.086 
16:10	28.2	28.2	28.2	87	24.8	1	5	45	0.00	30.086 
16:15	28.4	28.4	28.4	88	25.3	1	4	338	0.00	30.080 
16:20	28.5	28.5	28.5	88	25.4	1	4	90	0.00	30.089 
16:25	28.7	28.7	28.7	89	25.9	1	5	90	0.00	30.083 
16:30	28.8	28.8	28.8	89	26.0	1	6	90	0.00	30.079 
16:35	28.8	28.8	28.8	89	26.0	1	3	90	0.00	30.082 
16:40	29.0	29.0	29.0	90	26.4	2	5	90	0.00	30.081 
16:45	29.0	29.0	29.0	90	26.4	1	3	315	0.00	30.078 
16:50	29.1	29.1	29.1	90	26.5	1	6	90	0.00	30.079 
16:55	29.1	29.1	29.1	90	26.5	2	5	90	0.00	30.074 
17:00	29.3	29.3	29.3	90	26.7	2	5	90	0.00	30.075 
17:05	29.3	29.3	29.3	90	26.7	3	7	112	0.00	30.072 
17:10	29.4	29.4	29.4	90	26.8	2	6	90	0.00	30.072 
17:15	29.4	29.4	29.4	90	26.8	1	2	22	0.00	30.072 
17:20	29.4	29.4	29.4	90	26.8	2	9	112	0.00	30.072 
17:25	29.5	29.5	29.5	89	26.7	1	3	22	0.00	30.073 
17:30	29.5	29.5	29.5	89	26.7	1	3	90	0.00	30.070 
17:35	29.7	29.7	29.7	89	26.9	1	5	112	0.00	30.073 
17:40	29.7	29.7	29.7	89	26.9	2	5	90	0.00	30.071 
17:45	29.7	29.7	29.7	89	26.9	2	9	68	0.00	30.067 
17:50	29.7	29.7	29.7	90	27.1	1	3	315	0.00	30.073 
17:55	29.8	29.8	29.8	90	27.2	1	4	22	0.00	30.073 
18:00	29.8	29.8	29.8	90	27.2	1	2	90	0.00	30.073 
18:05	29.8	29.8	29.8	90	27.2	1	7	90	0.00	30.062 
18:10	30.0	30.0	30.0	90	27.4	2	5	90	0.00	30.057 
18:15	30.0	30.0	30.0	91	27.7	2	10	90	0.00	30.055 
18:20	30.0	30.0	30.0	91	27.7	2	6	90	0.00	30.054 
18:25	30.1	30.1	30.1	91	27.8	2	6	90	0.00	30.051 
18:30	30.1	30.1	30.1	91	27.8	1	3	112	0.00	30.053 
18:35	30.3	30.3	30.3	91	28.0	1	6	112	0.00	30.054 
18:40	30.3	30.3	30.3	91	28.0	2	5	112	0.00	30.045 
18:45	30.4	30.4	30.4	92	28.4	1	4	90	0.00	30.045 
18:50	30.6	30.6	30.6	92	28.6	2	7	90	0.00	30.049 
18:55	30.6	30.6	30.6	92	28.6	2	4	90	0.00	30.047 
19:00	30.6	30.6	30.6	92	28.6	2	4	90	0.00	30.034 
19:05	30.7	30.7	30.7	92	28.7	2	5	90	0.00	30.038 
19:10	30.7	30.7	30.7	92	28.7	2	4	90	0.00	30.038 
19:15	30.9	30.9	30.9	92	28.9	1	4	135	0.00	30.037 
19:20	30.9	30.9	30.9	92	28.9	1	5	90	0.00	30.037 
19:25	31.0	31.0	31.0	92	29.0	1	4	112	0.00	30.031 
19:30	31.2	31.2	31.2	92	29.2	1	4	90	0.00	30.029 
19:35	31.3	31.3	31.3	92	29.3	2	5	112	0.00	30.025 
19:40	31.3	31.3	31.3	92	29.3	1	4	90	0.00	30.025 
19:45	31.3	31.3	31.3	92	29.3	1	4	112	0.00	30.021 
19:50	31.5	31.5	31.5	92	29.4	1	5	90	0.00	30.020 
19:55	31.5	31.5	31.5	92	29.4	1	5	90	0.00	30.016 
20:00	31.5	31.5	31.5	92	29.4	2	5	90	0.00	30.013 
20:05	31.6	31.6	31.6	92	29.5	1	5	90	0.00	30.007 
20:10	31.8	31.8	31.8	92	29.7	2	4	90	0.00	30.004 
20:15	31.8	31.8	31.8	92	29.7	2	5	90	0.00	30.000 
20:20	31.8	31.8	31.8	92	29.7	2	6	112	0.00	29.992 
20:25	31.9	31.9	31.9	92	29.8	2	5	90	0.00	29.991 
20:30	31.9	31.9	31.9	92	29.8	1	4	248	0.00	29.998 
20:35	31.9	31.9	31.9	92	29.8	1	4	90	0.00	29.994 
20:40	32.1	32.1	32.1	92	30.0	2	6	90	0.00	29.997 
20:45	32.1	32.1	32.1	92	30.0	2	10	248	0.00	29.997 
20:50	32.2	32.2	32.2	92	30.1	2	4	112	0.00	29.997 
20:55	32.4	32.4	32.4	92	30.3	1	5	248	0.00	29.990 
21:00	32.4	32.4	32.4	92	30.3	1	4	248	0.00	29.982 
21:05	32.5	32.5	32.5	92	30.4	2	5	248	0.00	29.974 
21:10	32.5	32.5	32.5	92	30.4	0	2	248	0.00	29.981 
21:15	32.5	32.5	32.5	92	30.4	2	4	248	0.00	29.983 
21:20	32.5	32.5	32.5	92	30.4	1	3	248	0.00	29.981 
21:25	32.7	32.7	32.7	92	30.6	1	4	90	0.00	29.978 
21:30	32.7	32.7	32.7	92	30.6	1	3	248	0.00	29.981 
21:35	32.7	32.7	32.7	92	30.6	2	5	248	0.00	29.980 
21:40	32.7	32.7	32.7	92	30.6	1	5	248	0.00	29.979 
21:45	32.8	32.8	32.8	92	30.7	2	5	270	0.00	29.978 
21:50	32.8	32.8	32.8	92	30.7	2	5	248	0.00	29.974 
21:55	32.8	32.8	32.8	92	30.7	2	6	90	0.00	29.977 
22:00	32.9	32.9	32.9	92	30.8	2	6	270	0.00	29.975 
22:05	32.9	32.9	32.9	92	30.8	1	5	90	0.00	29.974 
22:10	32.9	32.9	32.9	92	30.8	2	6	248	0.00	29.971 
22:15	32.9	32.9	32.9	92	30.8	2	4	248	0.00	29.970 
22:20	32.9	32.9	32.9	92	30.8	1	4	248	0.00	29.970 
22:25	32.9	32.9	32.9	92	30.8	3	9	225	0.00	29.969 
22:30	33.1	33.1	33.1	92	31.0	2	5	248	0.00	29.968 
22:35	33.1	33.1	33.1	92	31.0	2	6	248	0.00	29.970 
22:40	33.1	33.1	33.1	92	31.0	2	6	270	0.00	29.971 
22:45	33.1	33.1	33.1	92	31.0	2	7	248	0.00	29.961 
22:50	33.1	33.1	33.1	92	31.0	1	4	248	0.00	29.956 
22:55	33.1	33.1	33.1	92	31.0	1	5	248	0.00	29.957 
23:00	33.1	33.1	33.1	92	31.0	1	3	248	0.00	29.964 
23:05	33.1	33.1	33.1	92	31.0	1	5	248	0.00	29.967 
23:10	33.1	33.1	33.1	92	31.0	1	7	248	0.00	29.967 
23:15	33.1	33.1	33.1	92	31.0	1	5	270	0.00	29.963 
23:20	33.2	33.2	33.2	92	31.1	2	6	248	0.00	29.968 
23:25	33.2	33.2	33.2	92	31.1	1	6	248	0.00	29.968 
23:30	33.2	33.2	33.2	92	31.1	1	3	270	0.00	29.966 
23:35	33.2	33.2	33.2	92	31.1	1	5	248	0.00	29.965 
23:40	33.2	33.2	33.2	92	31.1	1	4	248	0.00	29.968 
23:45	33.2	33.2	33.2	93	31.4	1	7	248	0.00	29.965 
23:50	33.2	33.2	33.2	93	31.4	1	4	248	0.00	29.966 
23:55	33.2	33.2	33.2	93	31.4	1	4	270	0.00	29.963 

CoCoRaHS
IN-AL-39
A2 Web Hosting
Creative Commons License
GoDaddy
search engine by freefind advanced

loaded 2018-11-17 00:01:53 • last modified 2010-11-18 10:43:29
Privacy PolicyDisclaimer
• wx.awcolley.com is powered by PmWiki v.2002016 •
• all content (unless otherwise noted) © 2018 A W Colley